SPACEBEENZ-9 (48887 NORAD) Tracking and Keplerian Element Data

This shows tracking and keplerian element data for the satellite.

Feedback or suggestion? Click here.




ElementValue
Catalog48887
NameSPACEBEENZ-9
Epoch Orbit1277
Epoch Day261.33464825
Epoch Year2021
RAAN28.8695
Inclination97.5228
Eccentricity0.0007923
Argument of Perigee333.7582
Mean Anonmoly26.3246
Mean Motion15.12233865
Decay Rate2.406E-05
L11 48887U 21059J 21261.33464825 .00002406 00000-0 14291-3 0 9991
L22 48887 97.5228 28.8695 0007923 333.7582 26.3246 15.12233865 12776

Live tracking and technical data element details for SPACEBEENZ-9 (NORAD 48887). SPACEBEENZ-9 can be tracked NOW for your location showing map with azimuth and elevation plus other details from your city location.

Track the satellite on the map from your city or location and see movement details for azimuth, elevation, latitude, longitude, range, height, and movement on the map or in text.







IsCatalogInMostPopularTable: catalog: 48887, numindb: 14
Update: records affected: 1



GetName: 48887 SPACEBEENZ-9

Hit Count: updated at: Fri, 24 Sep 2021 17:15:37 GMT